Tracking 23610 objects as of 20-Sep-2021
HD Live streaming from Space Station
objects crossing your sky now

STARLINK-1893

Track STARLINK-1893 now!
10-day predictions
STARLINK-1893 is classified as:


NORAD ID: 46786
Int'l Code: 2020-074AZ
Perigee: 551.7 km
Apogee: 557.1 km
Inclination: 53.1 °
Period: 95.6 minutes
Semi major axis: 6925 km
RCS: Unknown
Launch date: October 24, 2020
Source: United States (US)
Launch site: AIR FORCE EASTERN TEST RANGE (AFETR)
aabbcc
Your satellite tracking list
Your tracking list is empty




NASA's NSSDC Master Catalog

Two Line Element Set (TLE):
1 46786U 20074AZ  21262.73642957 -.00000019  00000-0  17676-4 0  9992
2 46786  53.0513  57.7428 0003876 311.1070  48.9584 15.06391068 51126
Source of the keplerian elements: AFSPC